Location: Henham
(51.9333°N, 0.2500°E)
Time: 23:18:48
(UTC+00:00)

STARLINK-24 - Pass Details

Date: 23 October 2019
Orbit: 550 x 553 km, 53.0° (Epoch: 15 November)

Event Time Altitude Azimuth Distance (km) Brightness Sun altitude
Rises 18:54:54 0° 285° (WNW) 2,725 8.7 -20.0°
Reaches altitude 10° 18:57:08 10° 284° (WNW) 1,830 7.5 -20.4°
Maximum altitude 19:01:17 81° 199° (SSW) 563 3.5 -21.0°
Enters shadow 19:01:49 66° 129° (SE) 605 3.5 -21.1°
